Location: Newark
(33.6333°S, 78.8500°W)
Time: 12:02:21
(UTC+00:00)

SR - All Passes

Search period start: 16 September 2019 00:00
Search period end: 26 September 2019 00:00
Orbit: 576 x 879 km, 66.7° (Epoch: 15 September)

Date Brightness Start Highest point End Pass type
(mag) Time Alt. Az. Time Alt. Az. Time Alt. Az.
16 Sep - 00:23:09 10° WNW 00:27:47 26° WSW 00:32:10 10° S visible
16 Sep - 09:07:32 10° SSW 09:11:54 82° WNW 09:16:06 10° NNE visible
16 Sep - 21:52:36 10° NNE 21:56:16 18° ENE 21:59:49 10° ESE daylight
16 Sep - 23:32:30 10° NW 23:37:59 53° WSW 23:43:07 10° SSE visible
17 Sep - 08:18:08 10° S 08:22:14 39° ESE 08:26:12 10° NE night (unlit)
17 Sep - 10:01:41 10° WSW 10:03:47 13° WNW 10:05:53 10° NW visible
17 Sep - 22:42:42 10° NNW 22:48:21 75° ENE 22:53:37 10° SSE daylight
18 Sep - 00:27:58 10° W 00:30:50 14° SW 00:33:37 10° SSW visible
18 Sep - 07:29:23 10° S 07:32:22 18° SE 07:35:16 10° E night (unlit)
18 Sep - 09:10:35 10° SW 09:14:28 33° WNW 09:18:16 10° N night (unlit)
18 Sep - 21:53:44 10° N 21:58:49 35° ENE 22:03:37 10° SE daylight
18 Sep - 23:36:10 10° WNW 23:40:52 28° WSW 23:45:19 10° S visible
19 Sep - 08:20:38 10° SSW 08:24:59 89° WNW 08:29:11 10° NNE night (unlit)
19 Sep - 21:06:00 10° NE 21:09:25 16° ENE 21:12:42 10° ESE daylight
19 Sep - 22:45:36 10° NW 22:51:06 56° WSW 22:56:15 10° SSE daylight
20 Sep - 07:31:17 10° S 07:35:18 36° ESE 07:39:12 10° NE night (unlit)
20 Sep - 09:14:31 10° WSW 09:16:54 15° WNW 09:19:16 10° NW night (unlit)
20 Sep - 21:55:51 10° NNW 22:01:28 70° ENE 22:06:41 10° SSE daylight
20 Sep - 23:40:51 10° W 23:43:54 15° SW 23:46:52 10° SSW visible
21 Sep - 06:42:37 10° SSE 06:45:25 16° SE 06:48:09 10° E night (unlit)
21 Sep - 08:23:36 10° SW 08:27:34 36° WNW 08:31:26 10° N night (unlit)
21 Sep - 21:06:58 10° N 21:11:57 33° ENE 21:16:38 10° SE daylight
21 Sep - 22:49:11 10° WNW 22:53:58 29° WSW 22:58:28 10° S daylight
22 Sep - 07:33:43 10° SSW 07:38:03 85° ESE 07:42:16 10° NNE night (unlit)
22 Sep - 20:19:26 10° NE 20:22:32 15° ENE 20:25:33 10° ESE daylight
22 Sep - 21:58:41 10° NW 22:04:13 60° WSW 22:09:21 10° SSE daylight
23 Sep - 06:44:25 10° S 06:48:22 33° ESE 06:52:12 10° NE night (unlit)
23 Sep - 08:27:24 10° WSW 08:30:01 16° WNW 08:32:36 10° NW night (unlit)
23 Sep - 21:09:02 10° NNW 21:14:35 66° ENE 21:19:46 10° SSE daylight
23 Sep - 22:53:44 10° W 22:56:58 16° SW 23:00:05 10° SSW daylight
24 Sep - 05:55:52 10° SSE 05:58:28 15° SE 06:01:00 10° E night (unlit)
24 Sep - 07:36:38 10° SW 07:40:39 39° WNW 07:44:36 10° N night (unlit)
24 Sep - 20:20:14 10° N 20:25:04 30° ENE 20:29:39 10° SE daylight
24 Sep - 22:02:12 10° WNW 22:07:03 31° WSW 22:11:37 10° S daylight
25 Sep - 06:46:49 10° SSW 06:51:08 78° ESE 06:55:21 10° NNE night (unlit)
25 Sep - 19:32:55 10° NE 19:35:41 14° ENE 19:38:23 10° ESE daylight
25 Sep - 21:11:47 10° NW 21:17:19 64° WSW 21:22:27 10° SSE daylight
